< < Back
Terminal Aerodrome Forecast


Current Version              Previous Versions:   1  2  3  4  5  6  7  8  9  

Terminal Aerodrome Forecast

745
FTUS42 KMLB 011700 RRA
TAFDAB
TAF
KDAB 011746Z 0118/0218 11008KT P6SM VCSH SCT040
     FM020000 12007KT P6SM FEW040 SCT250
     FM020200 00000KT P6SM FEW040=



Latest METAR

313
SAUS80 KWBC 011700 RRQ
MTRDAB
METAR KDAB 021653Z 07007KT 10SM SCT035 SCT130 32/22 A3010 RMK AO2 SLP192
T03170222


USA.gov is the U.S. government's official web portal to all federal, state and local government web resources and services.